STARLINK-1040 (44745 NORAD) Tracking and Keplerian Element Data

This shows tracking and keplerian element data for the satellite.

Feedback or suggestion? Click here.




ElementValue
Catalog44745
NameSTARLINK-1040
Epoch Orbit2260
Epoch Day93.69684925
Epoch Year2020
RAAN174.3049
Inclination52.9936
Eccentricity0.0003467
Argument of Perigee327.7609
Mean Anonmoly32.32
Mean Motion15.83791013
Decay Rate0.0003466
L11 44745U 19074AJ 20093.69684925 .00034660 00000-0 15575-3 0 9993
L22 44745 52.9936 174.3049 0003467 327.7609 32.3200 15.83791013 22600

Live tracking and technical data element details for STARLINK-1040 (NORAD 44745). STARLINK-1040 can be tracked NOW for your location showing map with azimuth and elevation plus other details from your city location.

Track the satellite on the map from your city or location and see movement details for azimuth, elevation, latitude, longitude, range, height, and movement on the map or in text.







IsCatalogInMostPopularTable: catalog: 44745, numindb: 63
Update: records affected: 1



GetName: 44745 STARLINK-1040

Hit Count: updated at: Fri, 03 Apr 2020 22:33:50 GMT